Weather History for Biarritz, France

Change the Weather History Date:

Wednesday, January 1, 2014

  Actual Average Record
Temperature  
Mean Temperature 52 °F -  
Max Temperature 60 °F 51 °F 64 °F (2012)
Min Temperature 43 °F 39 °F 26 °F (2008)
Degree Days  
Heating Degree Days 14    
Growing Degree Days 2 (Base 50)    
Moisture  
Dew Point 43 °F    
Average Humidity 66    
Maximum Humidity 94    
Minimum Humidity 39    
Precipitation  
Precipitation 0.02 in - - ()
Sea Level Pressure  
Sea Level Pressure 29.86 in    
Wind  
Wind Speed 6 mph ()    
Max Wind Speed 14 mph    
Max Gust Speed 32 mph    
Visibility 5.6 miles    
Events Rain    
Averages and records for this station are not official NWS values.
T = Trace of Precipitation, MM = Missing Value Source: Averaged Metar Reports

Daily Weather History Graph

Daily Weather History Graph

Search for Another Location

Airport:

Trip Planner

Search our weather history database for the weather conditions in past years. The results will help you decide how hot, cold, wet, or windy it might be!

Date:

Astronomy

Jan. 01, 2014 Rise Set
Actual Time 8:39 AM CET 5:40 PM CET
Civil Twilight 8:06 AM CET 6:13 PM CET
Nautical Twilight 7:30 AM CET 6:49 PM CET
Astronomical Twilight 6:55 AM CET 7:23 PM CET
Moon 8:14 AM CET (1/1) 6:10 PM CET (1/1)
Length of Visible Light 10h 06m
Length of Day
9h 01m
Waning Crescent, 0% of the Moon is Illuminated
Jan 1
Waning Crescent
Jan 1
New
Jan 8
First Quarter
Jan 16
Full
Jan 24
Last Quarter

Hourly Weather History & Observations

Time (CET) Temp. Windchill Dew Point Humidity Pressure Visibility Wind Dir Wind Speed Gust Speed Precip Events Conditions
12:00 AM 50 °F - 47 °F 87% 30.04 in 6 mi SSE 2.3 mph - -   Clear
12:00 AM 50.0 °F - 48.2 °F 94% 30.04 in 6.2 mi SSE 2.3 mph - N/A   Overcast
12:30 AM 50.0 °F - 48.2 °F 94% 30.04 in 6.2 mi Variable 2.3 mph - N/A   Mostly Cloudy
1:00 AM 50 °F - 47 °F 88% 30.03 in 3 mi Calm Calm - -   Clear
1:00 AM 50.0 °F - 48.2 °F 94% 30.01 in 5.6 mi Calm Calm - N/A   Overcast
1:30 AM 50.0 °F - 48.2 °F 94% 30.01 in 6.2 mi Variable 3.5 mph - N/A   Overcast
2:00 AM 49 °F - 47 °F 92% 30.03 in 4 mi SSE 2.3 mph - - Rain Light Rain
2:00 AM 50.0 °F - 48.2 °F 94% 30.01 in 5.6 mi SSE 2.3 mph - N/A Rain Light Rain
2:30 AM 50.0 °F - 48.2 °F 94% 30.01 in 6.2 mi WNW 2.3 mph - N/A   Overcast
3:00 AM 48 °F - 46 °F 91% 30.02 in 1 mi SE 1.2 mph - -   Mist
3:00 AM 48.2 °F - 46.4 °F 93% 30.01 in 1.6 mi Variable 1.2 mph - N/A   Overcast
3:30 AM 50.0 °F - 48.2 °F 94% 30.01 in 6.2 mi Variable 2.3 mph - N/A   Overcast
4:00 AM 47 °F - 45 °F 90% 30.01 in 6 mi East 3.5 mph - -   Clear
4:00 AM 46.4 °F 45.2 °F 44.6 °F 93% 29.98 in 6.2 mi East 3.5 mph - N/A   Mostly Cloudy
4:30 AM 44.6 °F 42.2 °F 42.8 °F 93% 29.98 in 0.8 mi SE 4.6 mph - N/A   Mist
5:00 AM 46 °F - 44 °F 91% 29.98 in 7 mi ESE 4.6 mph - -   Clear
5:00 AM 46.4 °F 44.3 °F 44.6 °F 93% 29.95 in 6.2 mi ESE 4.6 mph - N/A   Mostly Cloudy
5:30 AM 42.8 °F 40.1 °F 41.0 °F 93% 29.95 in 3.1 mi ESE 4.6 mph - N/A   Partly Cloudy
6:00 AM 44 °F - 42 °F 92% 29.95 in 6 mi East 5.8 mph - -   Partly Cloudy
6:00 AM 44.6 °F 42.2 °F 42.8 °F 93% 29.95 in 6.2 mi East 4.6 mph - N/A   Scattered Clouds
6:30 AM 44.6 °F 43.1 °F 42.8 °F 93% 29.92 in 6.2 mi Variable 3.5 mph - N/A   Scattered Clouds
7:00 AM 48 °F - 43 °F 77% 29.94 in 37 mi South 4.6 mph - -   Partly Cloudy
7:00 AM 48.2 °F - 44.6 °F 87% 29.92 in 6.2 mi South 4.6 mph - N/A   Scattered Clouds
7:30 AM 50.0 °F - 41.0 °F 71% 29.92 in 6.2 mi South 4.6 mph - N/A   Scattered Clouds
8:00 AM 51 °F - 41 °F 59% 29.91 in 37 mi South 6.9 mph - -   Partly Cloudy
8:00 AM 51.8 °F - 41.0 °F 67% 29.89 in 6.2 mi Variable 6.9 mph - N/A   Scattered Clouds
8:30 AM 51.8 °F - 41.0 °F 67% 29.89 in 6.2 mi South 6.9 mph - N/A   Partly Cloudy
9:00 AM 53 °F - 40 °F 51% 29.89 in 37 mi SSW 8.1 mph - -   Scattered Clouds
9:00 AM 53.6 °F - 39.2 °F 58% 29.89 in 6.2 mi Variable 8.1 mph - N/A   Scattered Clouds
9:30 AM 53.6 °F - 39.2 °F 58% 29.86 in - Variable 8.1 mph - N/A   Clear
10:00 AM 55 °F - 40 °F 45% 29.89 in 37 mi South 9.2 mph - -   Scattered Clouds
10:00 AM 55.4 °F - 39.2 °F 54% 29.89 in - SSW 9.2 mph - N/A   Clear
10:30 AM 55.4 °F - 39.2 °F 54% 29.86 in - Variable 9.2 mph 23.0 mph N/A   Clear
11:00 AM 56 °F - 40 °F 43% 29.88 in 37 mi South 10.4 mph - -   Scattered Clouds
11:00 AM 55.4 °F - 39.2 °F 54% 29.86 in - Variable 10.4 mph 21.9 mph N/A   Clear
11:30 AM 57.2 °F - 41.0 °F 55% 29.89 in - SSW 8.1 mph - N/A   Clear
12:00 PM 57 °F - 40 °F 42% 29.88 in 37 mi SSW 9.2 mph - -   Scattered Clouds
12:00 PM 57.2 °F - 41.0 °F 55% 29.86 in - SSW 9.2 mph 21.9 mph N/A   Clear
12:30 PM 57.2 °F - 39.2 °F 51% 29.86 in - Variable 10.4 mph - N/A   Clear
1:00 PM 59 °F - 41 °F 39% 29.86 in 37 mi SSW 8.1 mph - -   Scattered Clouds
1:00 PM 59.0 °F - 41.0 °F 51% 29.86 in - SSW 9.2 mph - N/A   Clear
1:30 PM 59.0 °F - 41.0 °F 51% 29.83 in - SSW 9.2 mph - N/A   Clear
2:00 PM 59 °F - 41 °F 39% 29.83 in 34 mi SSW 10.4 mph - -   Scattered Clouds
2:00 PM 59.0 °F - 41.0 °F 51% 29.83 in - SSW 12.7 mph 27.6 mph N/A   Clear
2:30 PM 57.2 °F - 42.8 °F 59% 29.83 in 6.2 mi SW 5.8 mph 19.6 mph N/A Rain Light Rain
3:00 PM 55.4 °F - 44.6 °F 67% 29.80 in 6.2 mi SSW 10.4 mph - N/A Rain Light Rain
3:30 PM 55.4 °F - 44.6 °F 67% 29.77 in 6.2 mi Variable 10.4 mph 21.9 mph N/A Rain Light Rain
4:00 PM 57 °F - 43 °F 50% 29.77 in 37 mi South 11.5 mph - - Rain Light Rain
4:00 PM 57.2 °F - 44.6 °F 63% 29.77 in 6.2 mi Variable 11.5 mph 25.3 mph N/A   Mostly Cloudy
4:30 PM 57.2 °F - 42.8 °F 59% 29.74 in 6.2 mi South 10.4 mph 23.0 mph N/A   Mostly Cloudy
5:00 PM 58 °F - 44 °F 48% 29.76 in 37 mi South 11.5 mph - -   Partly Cloudy
5:00 PM 57.2 °F - 42.8 °F 59% 29.74 in - SSW 10.4 mph 23.0 mph N/A   Clear
5:30 PM 59.0 °F - 42.8 °F 55% 29.74 in 6.2 mi SSW 9.2 mph - N/A   Mostly Cloudy
6:00 PM 58 °F - 43 °F 46% 29.73 in 37 mi SSW 11.5 mph - -   Scattered Clouds
6:00 PM 59.0 °F - 42.8 °F 55% 29.71 in 6.2 mi Variable 12.7 mph 24.2 mph N/A   Mostly Cloudy
6:30 PM 59.0 °F - 42.8 °F 55% 29.71 in 6.2 mi Variable 12.7 mph 32.2 mph N/A   Unknown
7:00 PM 59 °F - 43 °F 43% 29.72 in 37 mi SSW 11.5 mph - -   Clear
7:00 PM 59.0 °F - 42.8 °F 55% 29.71 in 6.2 mi Variable 11.5 mph 24.2 mph N/A   Unknown
7:30 PM 59.0 °F - 42.8 °F 55% 29.71 in 6.2 mi Variable 9.2 mph 26.5 mph N/A   Unknown
8:00 PM 60 °F - 43 °F 41% 29.71 in 37 mi South 9.2 mph - -   Clear
8:00 PM 59.0 °F - 42.8 °F 55% 29.68 in 6.2 mi South 9.2 mph 21.9 mph N/A   Unknown
8:30 PM 59.0 °F - 42.8 °F 55% 29.71 in 6.2 mi SSW 12.7 mph 25.3 mph N/A   Unknown
9:00 PM 59.0 °F - 42.8 °F 55% 29.71 in 6.2 mi SSW 11.5 mph 23.0 mph N/A   Unknown
9:30 PM 59.0 °F - 42.8 °F 55% 29.71 in 6.2 mi Variable 11.5 mph - N/A   Unknown
10:00 PM 59 °F - 44 °F 46% 29.71 in 37 mi SSW 11.5 mph - -   Clear
10:00 PM 59.0 °F - 44.6 °F 59% 29.71 in 6.2 mi Variable 11.5 mph 27.6 mph N/A   Unknown
10:30 PM 59.0 °F - 42.8 °F 55% 29.68 in 6.2 mi Variable 11.5 mph 25.3 mph N/A   Unknown
11:00 PM 58 °F - 44 °F 50% 29.68 in 37 mi SSW 13.8 mph - -   Clear
11:00 PM 59.0 °F - 44.6 °F 59% 29.68 in 6.2 mi SSW 13.8 mph 25.3 mph N/A   Unknown
11:30 PM 59.0 °F - 44.6 °F 59% 29.68 in 6.2 mi Variable 11.5 mph 26.5 mph N/A   Unknown